Regional Weather Roundup
Issued by NWS

Home | Current Version | Previous Version | Graphics & Text | Print | Product List | Glossary Off
Versions: 1 2 3 4 5 6 7 8 9 10 11 12 13 14 15 16 17 18 19 20 21 22 23 24 25 26 27 28 29 30 31 32 33 34 35 36 37 38 39 40 41 42 43 44 45 46 47 48 49 50

000
ASUS43 KDMX 120103
RWRIA

WEATHER ROUNDUP FOR IOWA
NATIONAL WEATHER SERVICE DES MOINES IA
700 PM CST THU FEB 11 2016

NOTE: "FAIR" INDICATES FEW OR NO CLOUDS BELOW 12,000 FEET WITH NO
SIGNIFICANT WEATHER AND/OR OBSTRUCTIONS TO VISIBILITY.

* - THESE STATIONS ARE NOT NWS STATIONS...THUS NOT UNDER NWS
QUALITY CONTROL.  THEY ALSO DO NOT REPORT WEATHER SUCH
AS PRECIPITATION OR FOG.

IAZ001>003-012>014-020>022-031>034-043>046-120200-
   NORTHWEST IOWA

CITY           SKY/WX    TMP DP  RH WIND       PRES   REMARKS
CARROLL *      LGT SNOW  16  14  93 E7        30.23R WCI   6
CHEROKEE *     LGT SNOW  15  13  92 S6        30.21S WCI   6
DENISON *      LGT SNOW  18  16  93 E5        30.20R WCI  11
LE MARS *      CLOUDY    18  18 100 SE6       30.22R FOG     WCI   9
ORANGE CITY *  LGT SNOW  16  16 100 CALM      30.19R
SHELDON *      CLOUDY    14  12  92 S6        30.19R WCI   5
SIOUX CITY     LGT SNOW  20  15  81 E8        30.21S WCI  10
SPENCER        FLURRIES  14   9  80 S8        30.21R WCI   3
STORM LAKE *   CLOUDY    14  14 100 SE10      30.20S FOG     WCI   1
$$

IAZ055>058-069>071-079>083-090>094-120200-
   SOUTHWEST IOWA

CITY           SKY/WX    TMP DP  RH WIND       PRES   REMARKS
ATLANTIC *     CLOUDY    21  16  79 NE7       30.22R WCI  13
AUDUBON *      LGT SNOW  18  16  93 E3        30.21R
CLARINDA *     CLOUDY    30  19  64 SE3       30.21F
COUNCIL BLFS * CLOUDY    25  21  86 N6        30.19R WCI  18
CRESTON *      MIX PCPN  23  14  68 E13       30.21S WCI  11
HARLAN  *      CLOUDY    21  18  86 E6        30.24R WCI  14
LAMONI         CLOUDY    26  12  55 E6        30.21F WCI  19
RED OAK *      CLOUDY    30  21  69 SE3       30.20R
SHENANDOAH *   CLOUDY    30  21  69 SE5       30.20S WCI  25
$$

IAZ047>049-059>061-072>074-084-120200-
   CENTRAL IOWA

CITY           SKY/WX    TMP DP  RH WIND       PRES   REMARKS
AMES           LGT SNOW  17  10  74 SE3       30.27R
ANKENY *       LGT SNOW  18  14  86 CALM      30.27S
BOONE *        LGT SNOW  16  10  79 E3        30.24S
CHARITON *     LGT SNOW  21  14  73 E5        30.26R WCI  15
DES MOINES     LGT SNOW  19  12  74 E5        30.27R WCI  12
GRINNELL*      CLOUDY    21  10  63 S5        30.26R WCI  15
KNOXVILLE *    LGT SNOW  19  14  79 E3        30.26R
MARSHALLTOWN   CLOUDY    18   8  65 CALM      30.26R
NEWTON *       FLURRIES  19  10  68 SW8       30.27R WCI   9
PELLA *        LGT SNOW  20  14  77 CALM      30.29R
$$

IAZ004>006-015-016-023>025-035-036-120200-
   NORTH CENTRAL IOWA

CITY           SKY/WX    TMP DP  RH WIND       PRES   REMARKS
ALGONA *       MOCLDY    12  10  92 S9        30.22S WCI   0
CLARION *      CLOUDY    12   9  85 S5        30.25S WCI   4
ESTHERVILLE    LGT SNOW  11   9  92 S12       30.21R FOG     WCI  -3
FORT DODGE *   CLOUDY    14   9  79 SE5       30.25S WCI   6
MASON CITY     CLOUDY    12   4  70 SW3       30.26R
FOREST CITY *  CLOUDY    12   9  85 S5        30.24R WCI   4
WEBSTER CITY * LGT SNOW  14  10  85 SE3       30.24S
IOWA FALLS *   CLOUDY    16   9  73 CALM      30.27R
$$

IAZ007>011-017>019-026>030-037>042-050>054-066-120200-
   NORTHEAST IOWA

CITY           SKY/WX    TMP DP  RH WIND       PRES   REMARKS
CEDAR RAPIDS   CLOUDY    21   9  59 SW5       30.27R WCI  15
CHARLES CITY * CLOUDY    12   1  62 CALM      30.26S
CLINTON *      PTCLDY    19   7  59 CALM      30.30R
DECORAH *      CLOUDY    10   0  61 CALM      30.24F
DUBUQUE        PTCLDY    16   5  62 CALM      30.26R
MONTICELLO *   CLOUDY    18   7  62 CALM      30.28S
OELWEIN *      CLOUDY    12   5  73 CALM      30.26S
WATERLOO       CLOUDY    15   4  61 CALM      30.27R
$$

IAZ064-065-067-068-078-120200-
   EAST CENTRAL IOWA

CITY           SKY/WX    TMP DP  RH WIND       PRES   REMARKS
DAVENPORT      CLOUDY    20   8  60 CALM      30.29R
IOWA CITY      CLOUDY    21   8  57 SE3       30.30S
MT. PLEASANT * CLOUDY    26  12  55 SE6       30.28S WCI  20
MUSCATINE *    CLOUDY    23   9  54 CALM      30.31R
QUAD CITIES    MOCLDY    22   6  50 SE3       30.29R
$$

IAZ062-063-075>077-085>089-095>099-120200-
   SOUTHEAST IOWA

CITY           SKY/WX    TMP DP  RH WIND       PRES   REMARKS
BURLINGTON     CLOUDY    23  11  60 S5        30.28F WCI  17
FAIRFIELD *    CLOUDY    23   7  50 SE6       30.28R WCI  16
FORT MADISON * CLOUDY    23  12  63 S3        30.29S
KEOKUK *       CLOUDY    23  10  58 SE3       30.28F
OSKALOOSA *    FLURRIES  23  12  63 S6        30.28R WCI  16
OTTUMWA        LGT SNOW  22  12  65 SW8       30.28R WCI  12
WASHINGTON *   CLOUDY    23  10  58 SE3       30.29S
$$

ABBREVIATIONS USED IN REMARKS
   TC - TEMPERATURES IN CELSIUS
  WCI - WIND CHILL INDEX
   HX - HEAT INDEX
  VSB - VISIBILITY
$$




USA.gov is the U.S. government's official web portal to all federal, state and local government web resources and services.